Airfield :
LOGIN :

Register | Disclaimer

   EN    FR    IT 

 










Legend :    VFR   Marginal VFR   IFR   Intensive IFR   Very Intensive IFR
Visi :
Ceiling :
>= 8 km
>= 3000ft
5 to 8 km
1000 to 3000 ft
1500m to 5 km
500 to 1000 ft
800 to 1500m
200 to 500 ft
< 800m
< 200 ft
Symbols :   Thunderstorms  Fog  Heavy snow  Heavy precipitations  Wind > 20 kt
SIGMETs :     Misc.  Thunderstorms  Icing  Turbulence  Mountain Waves  Volcanic Ashes







- Airport Elevation : 479 ft
- IATA code : DOL
- Download approach charts


LFRG - Deauville

CURRENT METAR :
  • 221900Z AUTO 06006KT 020V120 CAVOK 17/06 Q1029 NOSIG

EXPIRED METARs :
  • 221830Z AUTO 06007KT 030V090 CAVOK 18/06 Q1029 TEMPO 33010KT
  • 221800Z AUTO 06007KT 030V110 CAVOK 18/05 Q1029 BECMG 33010KT
  • 221730Z AUTO 05006KT 010V110 CAVOK 19/08 Q1029 NOSIG
  • 221700Z AUTO 05007KT 360V110 CAVOK 19/06 Q1029 NOSIG
  • 221630Z AUTO 03009KT 340V060 CAVOK 19/07 Q1029 NOSIG

TAF TAF LFRG
Valid from the 22 at 15:00 until the 23 at 00:00 UTC


221400Z 2215/2224 33010KT CAVOK
BECMG 2220/2222 VRB03KT
ATIS : +33 2 31 65 65 36
No reported NOTAMs for that airfield.



MET'MAP, your aeronautical weather chart ! - Copyright ORBIFLY December 2007 - Disclaimer

ORBIFLY MET'MAP TEAM :

Programming & Development : Alexandra Zaïnal
Concept & Development : Baudouin d'Aumeries
Co-Development & Prog : Marc-Olivier Méhu
Technical & hardware support : Manuel Goepfert

Contact : metmap@orbifly.com




SOURCES & CREDITS :

   NOAA